User: anonymous   Login
Location: Unspecified
(0.0000°N, 0.0000°E)
Time: 06:58:45
(UTC+00:00)
Language:

KORONAS-FOTON - Orbit

View from above orbital plane
View from above orbital plane
View from above satellite
View from above satellite

Ground track
Ground track

The orbit data is extracted from the following two-line orbital elements,

1 33504U 09003A   16239.92032576 +.00000330 +00000-0 +16115-4 0  9996
2 33504 082.4456 165.3153 0020975 049.6566 310.6494 15.14421017416834
Epoch (UTC): 26 August 2016 22:05:16
Eccentricity: 0.0020975
inclination: 82.4456°
perigee height: 508 km
apogee height: 537 km
right ascension of ascending node: 165.3153°
argument of perigee: 49.6566°
revolutions per day: 15.14421017
mean anomaly at epoch: 310.6494°
orbit number at epoch: 41683

The dashed part of the orbit path shows where the satellite is in the earth's shadow,  

DLR